Time,TemperatureF,DewpointF,PressureIn,WindDirection,WindDirectionDegrees,WindSpeedMPH,WindSpeedGustMPH,Humidity,HourlyPrecipIn,Conditions,Clouds,dailyrainin,SoftwareType,DateUTC
2013-06-04 00:03:00,64.9,56.0,29.84,SSE,159,1.0,-999.0,73,0.00,,,0.00,Wunderground v.1.15,2013-06-04 05:03:00,
2013-06-04 00:08:00,64.9,56.0,29.84,SW,219,1.0,-999.0,73,0.00,,,0.00,Wunderground v.1.15,2013-06-04 05:08:00,
2013-06-04 00:13:00,65.0,55.8,29.85,SE,141,1.0,-999.0,72,0.00,,,0.00,Wunderground v.1.15,2013-06-04 05:13:00,
2013-06-04 00:18:00,65.0,55.8,29.85,SSE,155,1.0,-999.0,72,0.00,,,0.00,Wunderground v.1.15,2013-06-04 05:18:00,
2013-06-04 00:24:00,64.9,56.0,29.84,SSE,148,1.0,-999.0,73,0.00,,,0.00,Wunderground v.1.15,2013-06-04 05:24:00,
2013-06-04 00:29:00,64.9,56.4,29.84,SE,141,0.0,-999.0,74,0.00,,,0.00,Wunderground v.1.15,2013-06-04 05:29:00,
2013-06-04 00:35:00,64.8,55.9,29.84,ESE,117,0.0,-999.0,73,0.00,,,0.00,Wunderground v.1.15,2013-06-04 05:35:00,
2013-06-04 00:40:00,64.7,55.8,29.84,SSE,152,0.0,-999.0,73,0.00,,,0.00,Wunderground v.1.15,2013-06-04 05:40:00,
2013-06-04 00:45:00,64.5,56.0,29.83,SSE,152,0.0,-999.0,74,0.00,,,0.00,Wunderground v.1.15,2013-06-04 05:45:00,
2013-06-04 00:50:00,64.5,56.4,29.83,SE,128,0.0,-999.0,75,0.00,,,0.00,Wunderground v.1.15,2013-06-04 05:50:00,
2013-06-04 00:55:00,64.3,56.2,29.82,SE,127,0.0,-999.0,75,0.00,,,0.00,Wunderground v.1.15,2013-06-04 05:55:00,
2013-06-04 01:00:00,64.1,56.4,29.82,SE,141,0.0,-999.0,76,0.00,,,0.00,Wunderground v.1.15,2013-06-04 06:00:00,
2013-06-04 01:05:00,64.0,56.3,29.82,East,79,1.0,-999.0,76,0.00,,,0.00,Wunderground v.1.15,2013-06-04 06:05:00,
2013-06-04 01:11:00,63.9,56.2,29.82,East,98,0.0,-999.0,76,0.00,,,0.00,Wunderground v.1.15,2013-06-04 06:11:00,
2013-06-04 01:17:00,63.8,56.1,29.82,East,89,0.0,-999.0,76,0.00,,,0.00,Wunderground v.1.15,2013-06-04 06:17:00,
2013-06-04 01:22:00,63.7,56.0,29.82,East,98,0.0,-999.0,76,0.00,,,0.00,Wunderground v.1.15,2013-06-04 06:22:00,
2013-06-04 01:27:00,63.6,55.9,29.81,ENE,75,2.0,-999.0,76,0.00,,,0.00,Wunderground v.1.15,2013-06-04 06:27:00,
2013-06-04 01:32:00,63.6,55.5,29.81,ESE,110,1.0,-999.0,75,0.00,,,0.00,Wunderground v.1.15,2013-06-04 06:32:00,
2013-06-04 01:38:00,63.6,55.5,29.81,East,79,2.0,-999.0,75,0.00,,,0.00,Wunderground v.1.15,2013-06-04 06:38:00,
2013-06-04 01:43:00,63.6,55.5,29.81,SSW,204,0.0,-999.0,75,0.00,,,0.00,Wunderground v.1.15,2013-06-04 06:43:00,
2013-06-04 01:48:00,63.5,55.8,29.80,ESE,102,0.0,-999.0,76,0.00,,,0.00,Wunderground v.1.15,2013-06-04 06:48:00,
2013-06-04 01:53:00,63.3,55.6,29.80,ENE,75,0.0,-999.0,76,0.00,,,0.00,Wunderground v.1.15,2013-06-04 06:53:00,
2013-06-04 01:58:00,63.2,55.5,29.80,SSW,205,1.0,-999.0,76,0.00,,,0.00,Wunderground v.1.15,2013-06-04 06:58:00,
2013-06-04 02:03:00,63.2,55.5,29.81,North,1,1.0,-999.0,76,0.00,,,0.00,Wunderground v.1.15,2013-06-04 07:03:00,
2013-06-04 02:08:00,63.1,55.4,29.81,East,101,0.0,-999.0,76,0.00,,,0.00,Wunderground v.1.15,2013-06-04 07:08:00,
2013-06-04 02:13:00,63.0,55.3,29.81,ENE,63,2.0,-999.0,76,0.00,,,0.00,Wunderground v.1.15,2013-06-04 07:13:00,
2013-06-04 02:18:00,63.0,55.3,29.81,East,82,0.0,-999.0,76,0.00,,,0.00,Wunderground v.1.15,2013-06-04 07:18:00,
2013-06-04 02:23:00,62.9,55.6,29.81,ENE,61,0.0,-999.0,77,0.00,,,0.00,Wunderground v.1.15,2013-06-04 07:23:00,
2013-06-04 02:28:00,62.9,55.6,29.82,East,89,0.0,-999.0,77,0.00,,,0.00,Wunderground v.1.15,2013-06-04 07:28:00,
2013-06-04 02:33:00,62.8,55.5,29.82,ENE,69,1.0,-999.0,77,0.00,,,0.00,Wunderground v.1.15,2013-06-04 07:33:00,
2013-06-04 02:38:00,62.8,55.5,29.82,NE,53,3.0,-999.0,77,0.00,,,0.00,Wunderground v.1.15,2013-06-04 07:38:00,
2013-06-04 02:43:00,62.8,55.5,29.82,East,96,0.0,-999.0,77,0.00,,,0.00,Wunderground v.1.15,2013-06-04 07:43:00,
2013-06-04 02:48:00,62.8,55.5,29.82,ENE,71,0.0,-999.0,77,0.00,,,0.00,Wunderground v.1.15,2013-06-04 07:48:00,
2013-06-04 02:53:00,62.6,55.3,29.82,ENE,69,0.0,-999.0,77,0.00,,,0.00,Wunderground v.1.15,2013-06-04 07:53:00,
2013-06-04 02:58:00,62.6,55.3,29.83,East,101,0.0,-999.0,77,0.00,,,0.00,Wunderground v.1.15,2013-06-04 07:58:00,
2013-06-04 03:03:00,62.6,55.3,29.83,East,81,0.0,-999.0,77,0.00,,,0.00,Wunderground v.1.15,2013-06-04 08:03:00,
2013-06-04 03:08:00,62.5,55.2,29.84,ENE,73,0.0,-999.0,77,0.00,,,0.00,Wunderground v.1.15,2013-06-04 08:08:00,
2013-06-04 03:13:00,62.5,55.5,29.84,East,79,1.0,-999.0,78,0.00,,,0.00,Wunderground v.1.15,2013-06-04 08:13:00,
2013-06-04 03:18:00,62.5,55.5,29.83,ENE,71,1.0,-999.0,78,0.00,,,0.00,Wunderground v.1.15,2013-06-04 08:18:00,
2013-06-04 03:23:00,62.5,55.5,29.82,ENE,71,0.0,-999.0,78,0.00,,,0.00,Wunderground v.1.15,2013-06-04 08:23:00,
2013-06-04 03:28:00,62.5,56.2,29.82,SE,134,0.0,-999.0,80,0.00,,,0.00,Wunderground v.1.15,2013-06-04 08:28:00,
2013-06-04 03:33:00,62.5,55.9,29.81,ENE,74,1.0,-999.0,79,0.00,,,0.00,Wunderground v.1.15,2013-06-04 08:33:00,
2013-06-04 03:38:00,62.4,55.4,29.81,ESE,113,0.0,-999.0,78,0.00,,,0.00,Wunderground v.1.15,2013-06-04 08:38:00,
2013-06-04 03:43:00,62.3,55.7,29.81,SW,236,0.0,-999.0,79,0.00,,,0.00,Wunderground v.1.15,2013-06-04 08:43:00,
2013-06-04 03:48:00,62.3,56.0,29.81,SSE,158,0.0,-999.0,80,0.00,,,0.00,Wunderground v.1.15,2013-06-04 08:48:00,
2013-06-04 03:53:00,62.3,56.0,29.80,East,83,1.0,-999.0,80,0.00,,,0.00,Wunderground v.1.15,2013-06-04 08:53:00,
2013-06-04 03:58:00,62.2,56.0,29.80,SSE,150,0.0,-999.0,80,0.00,,,0.00,Wunderground v.1.15,2013-06-04 08:58:00,
2013-06-04 04:03:00,62.1,55.9,29.80,East,82,1.0,-999.0,80,0.00,,,0.00,Wunderground v.1.15,2013-06-04 09:03:00,
2013-06-04 04:08:00,62.1,55.9,29.81,ENE,68,0.0,-999.0,80,0.00,,,0.00,Wunderground v.1.15,2013-06-04 09:08:00,
2013-06-04 04:13:00,62.0,55.8,29.82,NE,38,0.0,-999.0,80,0.00,,,0.00,Wunderground v.1.15,2013-06-04 09:13:00,
2013-06-04 04:18:00,62.0,55.4,29.82,ENE,59,0.0,-999.0,79,0.00,,,0.00,Wunderground v.1.15,2013-06-04 09:18:00,
2013-06-04 04:23:00,62.0,55.4,29.82,ENE,66,1.0,-999.0,79,0.00,,,0.00,Wunderground v.1.15,2013-06-04 09:23:00,
2013-06-04 04:28:00,62.0,55.4,29.81,East,82,0.0,-999.0,79,0.00,,,0.00,Wunderground v.1.15,2013-06-04 09:28:00,
2013-06-04 04:33:00,62.0,56.1,29.82,SE,131,0.0,-999.0,81,0.00,,,0.00,Wunderground v.1.15,2013-06-04 09:33:00,
2013-06-04 04:38:00,62.0,56.1,29.82,ESE,122,0.0,-999.0,81,0.00,,,0.00,Wunderground v.1.15,2013-06-04 09:38:00,
2013-06-04 04:43:00,61.9,55.7,29.82,ESE,123,0.0,-999.0,80,0.00,,,0.00,Wunderground v.1.15,2013-06-04 09:43:00,
2013-06-04 04:48:00,61.8,55.6,29.81,ESE,123,0.0,-999.0,80,0.00,,,0.00,Wunderground v.1.15,2013-06-04 09:48:00,
2013-06-04 04:53:00,61.8,55.9,29.82,SE,146,0.0,-999.0,81,0.00,,,0.00,Wunderground v.1.15,2013-06-04 09:53:00,
2013-06-04 04:58:00,61.7,55.8,29.82,SE,140,0.0,-999.0,81,0.00,,,0.00,Wunderground v.1.15,2013-06-04 09:58:00,
2013-06-04 05:03:00,61.7,55.8,29.81,SE,140,0.0,-999.0,81,0.00,,,0.00,Wunderground v.1.15,2013-06-04 10:03:00,
2013-06-04 05:08:00,61.8,55.9,29.81,East,86,0.0,-999.0,81,0.00,,,0.00,Wunderground v.1.15,2013-06-04 10:08:00,
2013-06-04 05:13:00,61.8,55.6,29.81,East,85,0.0,-999.0,80,0.00,,,0.00,Wunderground v.1.15,2013-06-04 10:13:00,
2013-06-04 05:18:00,61.8,55.6,29.81,NNE,33,2.0,-999.0,80,0.00,,,0.00,Wunderground v.1.15,2013-06-04 10:18:00,
2013-06-04 05:23:00,61.7,55.5,29.81,East,95,1.0,-999.0,80,0.00,,,0.00,Wunderground v.1.15,2013-06-04 10:23:00,
2013-06-04 05:28:00,61.7,55.5,29.81,East,93,0.0,-999.0,80,0.00,,,0.00,Wunderground v.1.15,2013-06-04 10:28:00,
2013-06-04 05:33:00,61.7,56.1,29.81,SE,128,0.0,-999.0,82,0.00,,,0.00,Wunderground v.1.15,2013-06-04 10:33:00,
2013-06-04 05:38:00,61.7,55.8,29.81,South,174,0.0,-999.0,81,0.00,,,0.00,Wunderground v.1.15,2013-06-04 10:38:00,
2013-06-04 05:43:00,61.7,56.1,29.81,SE,128,0.0,-999.0,82,0.00,,,0.00,Wunderground v.1.15,2013-06-04 10:43:00,
2013-06-04 05:48:00,61.7,56.1,29.81,ESE,117,0.0,-999.0,82,0.00,,,0.00,Wunderground v.1.15,2013-06-04 10:48:00,
2013-06-04 05:53:00,61.8,55.9,29.81,South,186,0.0,-999.0,81,0.00,,,0.00,Wunderground v.1.15,2013-06-04 10:53:00,
2013-06-04 05:58:00,61.8,55.9,29.81,ENE,65,1.0,-999.0,81,0.00,,,0.00,Wunderground v.1.15,2013-06-04 10:58:00,
2013-06-04 06:03:00,61.7,55.8,29.81,East,79,2.0,-999.0,81,0.00,,,0.00,Wunderground v.1.15,2013-06-04 11:03:00,
2013-06-04 06:08:00,61.7,55.8,29.82,ENE,68,2.0,-999.0,81,0.00,,,0.00,Wunderground v.1.15,2013-06-04 11:08:00,
2013-06-04 06:13:00,61.6,56.0,29.81,ENE,68,1.0,-999.0,82,0.00,,,0.00,Wunderground v.1.15,2013-06-04 11:13:00,
2013-06-04 06:18:00,61.2,56.0,29.81,ENE,68,1.0,-999.0,83,0.42,,,0.04,Wunderground v.1.15,2013-06-04 11:18:00,
2013-06-04 06:23:00,60.5,56.0,29.81,NE,46,0.0,-999.0,85,0.12,,,0.04,Wunderground v.1.15,2013-06-04 11:23:00,
2013-06-04 06:28:00,60.2,56.0,29.81,ENE,66,4.0,-999.0,86,0.06,,,0.04,Wunderground v.1.15,2013-06-04 11:28:00,
2013-06-04 06:33:00,60.0,56.1,29.81,ENE,57,0.0,-999.0,87,0.04,,,0.04,Wunderground v.1.15,2013-06-04 11:33:00,
2013-06-04 06:38:00,59.7,56.5,29.82,ENE,71,1.0,-999.0,89,0.19,,,0.07,Wunderground v.1.15,2013-06-04 11:38:00,
2013-06-04 06:43:00,59.3,56.4,29.83,ENE,66,0.0,-999.0,90,0.34,,,0.11,Wunderground v.1.15,2013-06-04 11:43:00,
2013-06-04 06:48:00,59.0,56.4,29.84,ENE,67,0.0,-999.0,91,0.09,,,0.11,Wunderground v.1.15,2013-06-04 11:48:00,
2013-06-04 06:53:00,58.8,56.5,29.85,ENE,66,0.0,-999.0,92,0.05,,,0.11,Wunderground v.1.15,2013-06-04 11:53:00,
2013-06-04 06:58:00,58.7,56.7,29.86,ENE,66,0.0,-999.0,93,0.04,,,0.12,Wunderground v.1.15,2013-06-04 11:58:00,
2013-06-04 07:03:00,58.6,56.6,29.86,ENE,67,0.0,-999.0,93,0.04,,,0.12,Wunderground v.1.15,2013-06-04 12:03:00,
2013-06-04 07:08:00,58.6,56.9,29.86,ENE,67,0.0,-999.0,94,0.04,,,0.12,Wunderground v.1.15,2013-06-04 12:08:00,
2013-06-04 07:13:00,58.6,56.9,29.86,ENE,66,1.0,-999.0,94,0.00,,,0.12,Wunderground v.1.15,2013-06-04 12:13:00,
2013-06-04 07:18:00,58.7,57.0,29.86,ENE,72,0.0,-999.0,94,0.00,,,0.12,Wunderground v.1.15,2013-06-04 12:18:00,
2013-06-04 07:23:00,58.7,57.0,29.85,NE,51,0.0,-999.0,94,0.00,,,0.12,Wunderground v.1.15,2013-06-04 12:23:00,
2013-06-04 07:28:00,58.9,56.9,29.85,ENE,67,1.0,-999.0,93,0.00,,,0.12,Wunderground v.1.15,2013-06-04 12:28:00,
2013-06-04 07:33:00,59.1,57.1,29.86,ENE,77,0.0,-999.0,93,0.00,,,0.12,Wunderground v.1.15,2013-06-04 12:33:00,
2013-06-04 07:38:00,59.3,57.0,29.85,ENE,71,0.0,-999.0,92,0.00,,,0.12,Wunderground v.1.15,2013-06-04 12:38:00,
2013-06-04 07:43:00,59.4,57.1,29.85,NNE,19,0.0,-999.0,92,0.00,,,0.12,Wunderground v.1.15,2013-06-04 12:43:00,
2013-06-04 07:48:00,59.4,57.1,29.86,NE,52,3.0,-999.0,92,0.00,,,0.12,Wunderground v.1.15,2013-06-04 12:48:00,
2013-06-04 07:53:00,59.6,57.3,29.86,NE,40,0.0,-999.0,92,0.00,,,0.12,Wunderground v.1.15,2013-06-04 12:53:00,
2013-06-04 07:58:00,59.9,57.6,29.85,ENE,68,1.0,-999.0,92,0.00,,,0.12,Wunderground v.1.15,2013-06-04 12:58:00,
2013-06-04 08:03:00,60.3,57.7,29.85,ENE,75,2.0,-999.0,91,0.00,,,0.12,Wunderground v.1.15,2013-06-04 13:03:00,
2013-06-04 08:08:00,60.6,58.0,29.85,NE,51,1.0,-999.0,91,0.00,,,0.12,Wunderground v.1.15,2013-06-04 13:08:00,
2013-06-04 08:13:00,60.7,58.1,29.85,ENE,60,2.0,-999.0,91,0.00,,,0.12,Wunderground v.1.15,2013-06-04 13:13:00,
2013-06-04 08:18:00,60.9,57.9,29.85,ENE,65,2.0,-999.0,90,0.00,,,0.12,Wunderground v.1.15,2013-06-04 13:18:00,
2013-06-04 08:23:00,61.1,57.8,29.84,NNW,338,3.0,-999.0,89,0.00,,,0.12,Wunderground v.1.15,2013-06-04 13:23:00,
2013-06-04 08:28:00,61.0,57.4,29.83,NE,54,5.0,-999.0,88,0.00,,,0.12,Wunderground v.1.15,2013-06-04 13:28:00,
2013-06-04 08:33:00,61.0,57.4,29.83,ENE,72,9.0,-999.0,88,0.00,,,0.12,Wunderground v.1.15,2013-06-04 13:33:00,
2013-06-04 08:38:00,60.9,57.6,29.83,ENE,58,4.0,-999.0,89,0.00,,,0.12,Wunderground v.1.15,2013-06-04 13:38:00,
2013-06-04 08:43:00,61.0,57.4,29.83,ENE,66,1.0,-999.0,88,0.00,,,0.12,Wunderground v.1.15,2013-06-04 13:43:00,
2013-06-04 08:48:00,61.2,57.6,29.83,North,11,5.0,-999.0,88,0.00,,,0.12,Wunderground v.1.15,2013-06-04 13:48:00,
2013-06-04 08:53:00,61.2,57.6,29.82,East,83,4.0,-999.0,88,0.00,,,0.12,Wunderground v.1.15,2013-06-04 13:53:00,
2013-06-04 08:58:00,61.3,57.4,29.82,ENE,58,4.0,-999.0,87,0.00,,,0.12,Wunderground v.1.15,2013-06-04 13:58:00,
2013-06-04 09:03:00,61.4,57.8,29.83,SSE,161,1.0,-999.0,88,0.00,,,0.12,Wunderground v.1.15,2013-06-04 14:03:00,
2013-06-04 09:08:00,61.6,58.0,29.83,East,82,5.0,-999.0,88,0.00,,,0.12,Wunderground v.1.15,2013-06-04 14:08:00,
2013-06-04 09:13:00,61.8,57.9,29.82,East,88,5.0,-999.0,87,0.00,,,0.12,Wunderground v.1.15,2013-06-04 14:13:00,
2013-06-04 09:18:00,62.0,58.1,29.82,NE,37,6.0,-999.0,87,0.00,,,0.12,Wunderground v.1.15,2013-06-04 14:18:00,
2013-06-04 09:23:00,62.3,58.4,29.82,East,101,4.0,-999.0,87,0.00,,,0.12,Wunderground v.1.15,2013-06-04 14:23:00,
2013-06-04 09:28:00,62.5,58.3,29.82,ENE,64,2.0,-999.0,86,0.00,,,0.12,Wunderground v.1.15,2013-06-04 14:28:00,
2013-06-04 09:33:00,62.6,58.4,29.82,ENE,57,6.0,-999.0,86,0.00,,,0.12,Wunderground v.1.15,2013-06-04 14:33:00,
2013-06-04 09:38:00,62.7,58.5,29.82,East,95,0.0,-999.0,86,0.00,,,0.12,Wunderground v.1.15,2013-06-04 14:38:00,
2013-06-04 09:43:00,62.7,58.1,29.82,ESE,106,2.0,-999.0,85,0.00,,,0.12,Wunderground v.1.15,2013-06-04 14:43:00,
2013-06-04 09:48:00,62.8,58.2,29.80,ENE,65,4.0,-999.0,85,0.00,,,0.12,Wunderground v.1.15,2013-06-04 14:48:00,
2013-06-04 09:53:00,62.8,58.2,29.80,East,79,2.0,-999.0,85,0.00,,,0.12,Wunderground v.1.15,2013-06-04 14:53:00,
2013-06-04 09:58:00,62.9,58.3,29.81,East,83,0.0,-999.0,85,0.00,,,0.12,Wunderground v.1.15,2013-06-04 14:58:00,
2013-06-04 10:03:00,63.2,58.6,29.81,NE,56,3.0,-999.0,85,0.00,,,0.12,Wunderground v.1.15,2013-06-04 15:03:00,
2013-06-04 10:08:00,63.5,59.2,29.82,SW,217,0.0,-999.0,86,0.00,,,0.12,Wunderground v.1.15,2013-06-04 15:08:00,
2013-06-04 10:13:00,64.0,59.1,29.85,SSE,165,3.0,-999.0,84,0.00,,,0.12,Wunderground v.1.15,2013-06-04 15:13:00,
2013-06-04 10:18:00,64.3,59.4,29.84,SE,125,0.0,-999.0,84,0.00,,,0.12,Wunderground v.1.15,2013-06-04 15:18:00,
2013-06-04 10:23:00,64.6,59.3,29.83,South,180,0.0,-999.0,83,0.00,,,0.12,Wunderground v.1.15,2013-06-04 15:23:00,
2013-06-04 10:28:00,65.0,60.0,29.83,SE,143,0.0,-999.0,84,0.00,,,0.12,Wunderground v.1.15,2013-06-04 15:28:00,
2013-06-04 10:33:00,65.5,60.2,29.83,ESE,115,0.0,-999.0,83,0.00,,,0.12,Wunderground v.1.15,2013-06-04 15:33:00,
2013-06-04 10:38:00,66.0,60.3,29.83,ENE,72,1.0,-999.0,82,0.00,,,0.12,Wunderground v.1.15,2013-06-04 15:38:00,
2013-06-04 10:43:00,66.4,60.4,29.84,ENE,75,2.0,-999.0,81,0.00,,,0.12,Wunderground v.1.15,2013-06-04 15:43:00,
2013-06-04 10:48:00,66.6,60.6,29.84,SSE,156,0.0,-999.0,81,0.00,,,0.12,Wunderground v.1.15,2013-06-04 15:48:00,
2013-06-04 10:53:00,66.7,60.3,29.84,NE,56,0.0,-999.0,80,0.00,,,0.12,Wunderground v.1.15,2013-06-04 15:53:00,
2013-06-04 10:58:00,66.9,60.9,29.84,SW,224,0.0,-999.0,81,0.00,,,0.12,Wunderground v.1.15,2013-06-04 15:58:00,
2013-06-04 11:03:00,67.2,60.8,29.84,SSE,158,2.0,-999.0,80,0.00,,,0.12,Wunderground v.1.15,2013-06-04 16:03:00,
2013-06-04 11:08:00,67.6,61.2,29.85,South,174,0.0,-999.0,80,0.00,,,0.12,Wunderground v.1.15,2013-06-04 16:08:00,
2013-06-04 11:13:00,67.7,60.6,29.85,SE,139,0.0,-999.0,78,0.00,,,0.12,Wunderground v.1.15,2013-06-04 16:13:00,
2013-06-04 11:18:00,67.9,60.8,29.85,SSE,156,2.0,-999.0,78,0.00,,,0.12,Wunderground v.1.15,2013-06-04 16:18:00,
2013-06-04 11:23:00,67.9,60.8,29.85,SE,142,3.0,-999.0,78,0.00,,,0.12,Wunderground v.1.15,2013-06-04 16:23:00,
2013-06-04 11:28:00,68.0,61.2,29.85,SSE,152,0.0,-999.0,79,0.00,,,0.12,Wunderground v.1.15,2013-06-04 16:28:00,
2013-06-04 11:33:00,68.2,61.1,29.85,South,170,1.0,-999.0,78,0.00,,,0.12,Wunderground v.1.15,2013-06-04 16:33:00,
2013-06-04 11:38:00,68.5,61.7,29.85,SE,125,0.0,-999.0,79,0.00,,,0.12,Wunderground v.1.15,2013-06-04 16:38:00,
2013-06-04 11:43:00,68.8,61.3,29.85,SSW,200,0.0,-999.0,77,0.00,,,0.12,Wunderground v.1.15,2013-06-04 16:43:00,
2013-06-04 11:48:00,69.0,61.9,29.85,SE,125,0.0,-999.0,78,0.00,,,0.12,Wunderground v.1.15,2013-06-04 16:48:00,
2013-06-04 11:53:00,69.5,62.0,29.85,NE,54,0.0,-999.0,77,0.00,,,0.12,Wunderground v.1.15,2013-06-04 16:53:00,
2013-06-04 11:58:00,69.6,61.7,29.85,SSE,152,0.0,-999.0,76,0.00,,,0.12,Wunderground v.1.15,2013-06-04 16:58:00,
2013-06-04 12:03:00,69.8,62.3,29.85,SSE,152,1.0,-999.0,77,0.00,,,0.12,Wunderground v.1.15,2013-06-04 17:03:00,
2013-06-04 12:08:00,70.0,62.1,29.85,SSE,155,1.0,-999.0,76,0.00,,,0.12,Wunderground v.1.15,2013-06-04 17:08:00,
2013-06-04 12:13:00,70.2,62.6,29.85,SSW,207,0.0,-999.0,77,0.00,,,0.12,Wunderground v.1.15,2013-06-04 17:13:00,
2013-06-04 12:18:00,70.2,61.9,29.85,SSE,168,0.0,-999.0,75,0.00,,,0.12,Wunderground v.1.15,2013-06-04 17:18:00,
2013-06-04 12:23:00,70.4,62.1,29.85,SSE,155,0.0,-999.0,75,0.00,,,0.12,Wunderground v.1.15,2013-06-04 17:23:00,
2013-06-04 12:28:00,70.5,62.6,29.85,SSE,156,0.0,-999.0,76,0.00,,,0.12,Wunderground v.1.15,2013-06-04 17:28:00,
2013-06-04 12:33:00,70.7,62.0,29.85,ENE,76,1.0,-999.0,74,0.00,,,0.12,Wunderground v.1.15,2013-06-04 17:33:00,
2013-06-04 12:38:00,70.6,62.3,29.85,ENE,76,1.0,-999.0,75,0.00,,,0.12,Wunderground v.1.15,2013-06-04 17:38:00,
2013-06-04 12:43:00,70.5,62.2,29.85,ENE,69,0.0,-999.0,75,0.00,,,0.12,Wunderground v.1.15,2013-06-04 17:43:00,
2013-06-04 12:48:00,70.5,62.2,29.85,ENE,71,1.0,-999.0,75,0.00,,,0.12,Wunderground v.1.15,2013-06-04 17:48:00,
2013-06-04 12:53:00,70.6,63.0,29.85,ENE,71,0.0,-999.0,77,0.00,,,0.12,Wunderground v.1.15,2013-06-04 17:53:00,
2013-06-04 12:58:00,70.8,62.9,29.85,ENE,71,0.0,-999.0,76,0.00,,,0.12,Wunderground v.1.15,2013-06-04 17:58:00,
2013-06-04 13:03:00,70.7,63.1,29.84,SSE,159,0.0,-999.0,77,0.00,,,0.12,Wunderground v.1.15,2013-06-04 18:03:00,
2013-06-04 13:08:00,70.8,63.2,29.84,SSE,166,0.0,-999.0,77,0.00,,,0.12,Wunderground v.1.15,2013-06-04 18:08:00,
2013-06-04 13:13:00,70.8,62.9,29.85,SSE,163,0.0,-999.0,76,0.00,,,0.12,Wunderground v.1.15,2013-06-04 18:13:00,
2013-06-04 13:18:00,70.8,62.9,29.84,SSE,148,0.0,-999.0,76,0.00,,,0.12,Wunderground v.1.15,2013-06-04 18:18:00,
2013-06-04 13:23:00,70.9,63.0,29.84,East,98,1.0,-999.0,76,0.00,,,0.12,Wunderground v.1.15,2013-06-04 18:23:00,
2013-06-04 13:28:00,70.9,62.6,29.84,ENE,71,0.0,-999.0,75,0.00,,,0.12,Wunderground v.1.15,2013-06-04 18:28:00,
2013-06-04 13:33:00,70.9,63.3,29.84,East,79,0.0,-999.0,77,0.00,,,0.12,Wunderground v.1.15,2013-06-04 18:33:00,
2013-06-04 13:38:00,70.8,63.2,29.84,South,190,0.0,-999.0,77,0.00,,,0.12,Wunderground v.1.15,2013-06-04 18:38:00,
2013-06-04 13:43:00,70.8,62.9,29.84,SE,141,0.0,-999.0,76,0.00,,,0.12,Wunderground v.1.15,2013-06-04 18:43:00,
2013-06-04 13:48:00,70.7,62.8,29.84,SE,124,0.0,-999.0,76,0.00,,,0.12,Wunderground v.1.15,2013-06-04 18:48:00,
2013-06-04 13:53:00,70.6,62.7,29.84,SE,138,1.0,-999.0,76,0.00,,,0.12,Wunderground v.1.15,2013-06-04 18:53:00,
2013-06-04 13:58:00,70.5,62.9,29.84,SE,138,0.0,-999.0,77,0.00,,,0.12,Wunderground v.1.15,2013-06-04 18:58:00,
2013-06-04 14:03:00,70.5,62.6,29.84,SSE,158,0.0,-999.0,76,0.00,,,0.12,Wunderground v.1.15,2013-06-04 19:03:00,
2013-06-04 14:08:00,70.5,63.3,29.84,SSE,160,0.0,-999.0,78,0.00,,,0.12,Wunderground v.1.15,2013-06-04 19:08:00,
2013-06-04 14:13:00,70.4,62.5,29.84,East,96,0.0,-999.0,76,0.00,,,0.12,Wunderground v.1.15,2013-06-04 19:13:00,
2013-06-04 14:18:00,70.0,62.8,29.84,ENE,67,0.0,-999.0,78,0.00,,,0.12,Wunderground v.1.15,2013-06-04 19:18:00,
2013-06-04 14:23:00,69.9,62.4,29.84,NE,54,3.0,-999.0,77,0.00,,,0.12,Wunderground v.1.15,2013-06-04 19:23:00,
2013-06-04 14:28:00,69.8,62.3,29.84,ENE,71,0.0,-999.0,77,0.00,,,0.12,Wunderground v.1.15,2013-06-04 19:28:00,
2013-06-04 14:33:00,69.8,62.3,29.84,ENE,77,2.0,-999.0,77,0.00,,,0.12,Wunderground v.1.15,2013-06-04 19:33:00,
2013-06-04 14:38:00,69.8,62.6,29.84,ENE,62,0.0,-999.0,78,0.00,,,0.12,Wunderground v.1.15,2013-06-04 19:38:00,
2013-06-04 14:43:00,69.8,62.6,29.84,ENE,65,0.0,-999.0,78,0.00,,,0.12,Wunderground v.1.15,2013-06-04 19:43:00,
2013-06-04 14:48:00,69.9,63.1,29.84,ENE,68,0.0,-999.0,79,0.00,,,0.12,Wunderground v.1.15,2013-06-04 19:48:00,
2013-06-04 14:53:00,70.0,62.8,29.84,ENE,68,0.0,-999.0,78,0.00,,,0.12,Wunderground v.1.15,2013-06-04 19:53:00,
2013-06-04 14:58:00,69.8,62.6,29.85,ENE,68,0.0,-999.0,78,0.00,,,0.12,Wunderground v.1.15,2013-06-04 19:58:00,
2013-06-04 15:03:00,69.7,62.9,29.84,ENE,67,0.0,-999.0,79,0.00,,,0.12,Wunderground v.1.15,2013-06-04 20:03:00,
2013-06-04 15:08:00,69.7,63.3,29.84,ENE,68,0.0,-999.0,80,0.00,,,0.12,Wunderground v.1.15,2013-06-04 20:08:00,
2013-06-04 15:13:00,69.7,63.6,29.84,ENE,68,0.0,-999.0,81,0.00,,,0.12,Wunderground v.1.15,2013-06-04 20:13:00,
2013-06-04 15:18:00,70.1,64.3,29.84,ENE,66,0.0,-999.0,82,0.00,,,0.12,Wunderground v.1.15,2013-06-04 20:18:00,
2013-06-04 15:23:00,70.5,63.7,29.84,NE,56,1.0,-999.0,79,0.00,,,0.12,Wunderground v.1.15,2013-06-04 20:23:00,
2013-06-04 15:28:00,71.0,64.9,29.84,NE,56,0.0,-999.0,81,0.00,,,0.12,Wunderground v.1.15,2013-06-04 20:28:00,
2013-06-04 15:33:00,71.5,65.0,29.84,East,85,0.0,-999.0,80,0.00,,,0.12,Wunderground v.1.15,2013-06-04 20:33:00,
2013-06-04 15:38:00,71.9,64.3,29.84,SE,136,0.0,-999.0,77,0.00,,,0.12,Wunderground v.1.15,2013-06-04 20:38:00,
2013-06-04 15:43:00,72.0,64.0,29.84,SE,143,0.0,-999.0,76,0.00,,,0.12,Wunderground v.1.15,2013-06-04 20:43:00,
2013-06-04 15:48:00,72.0,64.4,29.83,SE,128,0.0,-999.0,77,0.00,,,0.12,Wunderground v.1.15,2013-06-04 20:48:00,
2013-06-04 15:53:00,71.9,64.3,29.84,SE,130,0.0,-999.0,77,0.00,,,0.12,Wunderground v.1.15,2013-06-04 20:53:00,
2013-06-04 15:58:00,71.7,64.1,29.83,NE,53,0.0,-999.0,77,0.00,,,0.12,Wunderground v.1.15,2013-06-04 20:58:00,
2013-06-04 16:03:00,71.9,64.3,29.83,ENE,69,0.0,-999.0,77,0.00,,,0.12,Wunderground v.1.15,2013-06-04 21:03:00,
2013-06-04 16:08:00,72.3,64.7,29.83,ENE,76,0.0,-999.0,77,0.00,,,0.12,Wunderground v.1.15,2013-06-04 21:08:00,
2013-06-04 16:13:00,72.4,64.4,29.83,ENE,71,0.0,-999.0,76,0.00,,,0.12,Wunderground v.1.15,2013-06-04 21:13:00,
2013-06-04 16:18:00,72.9,64.9,29.83,ESE,114,1.0,-999.0,76,0.00,,,0.12,Wunderground v.1.15,2013-06-04 21:18:00,
2013-06-04 16:23:00,73.5,64.7,29.83,NE,44,1.0,-999.0,74,0.00,,,0.12,Wunderground v.1.15,2013-06-04 21:23:00,
2013-06-04 16:28:00,74.0,65.6,29.83,NE,50,0.0,-999.0,75,0.00,,,0.12,Wunderground v.1.15,2013-06-04 21:28:00,
2013-06-04 16:33:00,74.4,64.8,29.83,ENE,68,1.0,-999.0,72,0.00,,,0.12,Wunderground v.1.15,2013-06-04 21:33:00,
2013-06-04 16:38:00,74.2,65.0,29.83,East,81,2.0,-999.0,73,0.00,,,0.12,Wunderground v.1.15,2013-06-04 21:38:00,
2013-06-04 16:43:00,74.5,65.7,29.83,ENE,78,1.0,-999.0,74,0.00,,,0.12,Wunderground v.1.15,2013-06-04 21:43:00,
2013-06-04 16:48:00,74.8,66.0,29.83,East,93,0.0,-999.0,74,0.00,,,0.12,Wunderground v.1.15,2013-06-04 21:48:00,
2013-06-04 16:53:00,75.3,65.6,29.83,SSE,156,1.0,-999.0,72,0.00,,,0.12,Wunderground v.1.15,2013-06-04 21:53:00,
2013-06-04 16:58:00,75.8,66.1,29.83,SE,142,0.0,-999.0,72,0.00,,,0.12,Wunderground v.1.15,2013-06-04 21:58:00,
2013-06-04 17:03:00,76.1,66.0,29.83,SW,233,0.0,-999.0,71,0.00,,,0.12,Wunderground v.1.15,2013-06-04 22:03:00,
2013-06-04 17:08:00,76.1,65.6,29.83,South,176,0.0,-999.0,70,0.00,,,0.12,Wunderground v.1.15,2013-06-04 22:08:00,
2013-06-04 17:13:00,75.9,65.4,29.83,East,99,0.0,-999.0,70,0.00,,,0.12,Wunderground v.1.15,2013-06-04 22:13:00,
2013-06-04 17:18:00,75.9,65.4,29.83,South,180,1.0,-999.0,70,0.00,,,0.12,Wunderground v.1.15,2013-06-04 22:18:00,
2013-06-04 17:23:00,76.1,66.0,29.83,ESE,110,0.0,-999.0,71,0.00,,,0.12,Wunderground v.1.15,2013-06-04 22:23:00,
2013-06-04 17:28:00,76.3,65.8,29.83,ENE,74,4.0,-999.0,70,0.00,,,0.12,Wunderground v.1.15,2013-06-04 22:28:00,
2013-06-04 17:33:00,75.5,65.0,29.83,NE,53,2.0,-999.0,70,0.00,,,0.12,Wunderground v.1.15,2013-06-04 22:33:00,
2013-06-04 17:38:00,75.0,65.4,29.83,NE,39,1.0,-999.0,72,0.00,,,0.12,Wunderground v.1.15,2013-06-04 22:38:00,
2013-06-04 17:43:00,74.8,65.6,29.83,East,81,0.0,-999.0,73,0.00,,,0.12,Wunderground v.1.15,2013-06-04 22:43:00,
2013-06-04 17:48:00,75.1,65.5,29.83,ENE,66,2.0,-999.0,72,0.00,,,0.12,Wunderground v.1.15,2013-06-04 22:48:00,
2013-06-04 17:53:00,74.7,65.1,29.83,NNE,30,3.0,-999.0,72,0.00,,,0.12,Wunderground v.1.15,2013-06-04 22:53:00,
2013-06-04 17:58:00,74.5,66.1,29.83,East,95,0.0,-999.0,75,0.00,,,0.12,Wunderground v.1.15,2013-06-04 22:58:00,
2013-06-04 18:03:00,74.5,66.4,29.83,ENE,58,0.0,-999.0,76,0.00,,,0.12,Wunderground v.1.15,2013-06-04 23:03:00,
2013-06-04 18:08:00,74.4,65.6,29.83,ENE,58,0.0,-999.0,74,0.00,,,0.12,Wunderground v.1.15,2013-06-04 23:08:00,
2013-06-04 18:13:00,74.1,66.0,29.83,NNE,26,0.0,-999.0,76,0.00,,,0.12,Wunderground v.1.15,2013-06-04 23:13:00,
2013-06-04 18:18:00,73.7,66.0,29.83,NE,41,0.0,-999.0,77,0.00,,,0.12,Wunderground v.1.15,2013-06-04 23:18:00,
2013-06-04 18:23:00,73.5,65.8,29.83,NE,42,0.0,-999.0,77,0.00,,,0.12,Wunderground v.1.15,2013-06-04 23:23:00,
2013-06-04 18:28:00,73.4,65.7,29.83,ENE,62,1.0,-999.0,77,0.00,,,0.12,Wunderground v.1.15,2013-06-04 23:28:00,
2013-06-04 18:33:00,73.4,66.1,29.83,ENE,75,0.0,-999.0,78,0.00,,,0.12,Wunderground v.1.15,2013-06-04 23:33:00,
2013-06-04 18:38:00,73.5,65.8,29.83,ENE,57,1.0,-999.0,77,0.00,,,0.12,Wunderground v.1.15,2013-06-04 23:38:00,
2013-06-04 18:43:00,73.5,65.8,29.83,NE,50,1.0,-999.0,77,0.00,,,0.12,Wunderground v.1.15,2013-06-04 23:43:00,
2013-06-04 18:48:00,73.7,65.3,29.83,NE,47,0.0,-999.0,75,0.00,,,0.12,Wunderground v.1.15,2013-06-04 23:48:00,
2013-06-04 18:53:00,73.9,65.9,29.83,NE,47,0.0,-999.0,76,0.00,,,0.12,Wunderground v.1.15,2013-06-04 23:53:00,
2013-06-04 18:58:00,74.1,65.7,29.83,NE,56,2.0,-999.0,75,0.00,,,0.12,Wunderground v.1.15,2013-06-04 23:58:00,
2013-06-04 19:03:00,74.0,66.0,29.83,NE,34,1.0,-999.0,76,0.00,,,0.12,Wunderground v.1.15,2013-06-05 00:03:00,
2013-06-04 19:08:00,73.8,65.8,29.83,NE,34,2.0,-999.0,76,0.00,,,0.12,Wunderground v.1.15,2013-06-05 00:08:00,
2013-06-04 19:13:00,73.6,65.6,29.83,NE,47,1.0,-999.0,76,0.00,,,0.12,Wunderground v.1.15,2013-06-05 00:13:00,
2013-06-04 19:18:00,73.5,65.8,29.83,NE,53,1.0,-999.0,77,0.00,,,0.12,Wunderground v.1.15,2013-06-05 00:18:00,
2013-06-04 19:23:00,73.4,65.4,29.83,NE,46,2.0,-999.0,76,0.00,,,0.12,Wunderground v.1.15,2013-06-05 00:23:00,
2013-06-04 19:28:00,73.3,65.7,29.84,NE,46,0.0,-999.0,77,0.00,,,0.12,Wunderground v.1.15,2013-06-05 00:28:00,
2013-06-04 19:33:00,73.3,65.7,29.84,NE,46,0.0,-999.0,77,0.00,,,0.12,Wunderground v.1.15,2013-06-05 00:33:00,
2013-06-04 19:38:00,73.4,65.7,29.84,NE,46,0.0,-999.0,77,0.00,,,0.12,Wunderground v.1.15,2013-06-05 00:38:00,
2013-06-04 19:43:00,73.4,65.7,29.84,NE,47,0.0,-999.0,77,0.00,,,0.12,Wunderground v.1.15,2013-06-05 00:43:00,
2013-06-04 19:48:00,73.3,66.0,29.84,ENE,58,0.0,-999.0,78,0.00,,,0.12,Wunderground v.1.15,2013-06-05 00:48:00,
2013-06-04 19:53:00,73.2,65.9,29.84,ENE,60,0.0,-999.0,78,0.00,,,0.12,Wunderground v.1.15,2013-06-05 00:53:00,
2013-06-04 19:58:00,73.1,65.8,29.84,ENE,60,0.0,-999.0,78,0.00,,,0.12,Wunderground v.1.15,2013-06-05 00:58:00,
2013-06-04 20:03:00,72.9,65.6,29.85,ENE,60,0.0,-999.0,78,0.00,,,0.12,Wunderground v.1.15,2013-06-05 01:03:00,
2013-06-04 20:08:00,72.8,65.9,29.85,ENE,60,0.0,-999.0,79,0.00,,,0.12,Wunderground v.1.15,2013-06-05 01:08:00,
2013-06-04 20:13:00,72.6,65.7,29.85,ENE,60,0.0,-999.0,79,0.00,,,0.12,Wunderground v.1.15,2013-06-05 01:13:00,
2013-06-04 20:18:00,72.4,65.9,29.85,ENE,60,0.0,-999.0,80,0.00,,,0.12,Wunderground v.1.15,2013-06-05 01:18:00,
2013-06-04 20:23:00,72.3,65.8,29.85,ENE,59,0.0,-999.0,80,0.00,,,0.12,Wunderground v.1.15,2013-06-05 01:23:00,
2013-06-04 20:28:00,72.2,65.7,29.86,ENE,60,0.0,-999.0,80,0.00,,,0.12,Wunderground v.1.15,2013-06-05 01:28:00,
2013-06-04 20:33:00,72.0,65.8,29.86,ENE,60,0.0,-999.0,81,0.00,,,0.12,Wunderground v.1.15,2013-06-05 01:33:00,
2013-06-04 20:38:00,71.8,65.7,29.86,ENE,59,0.0,-999.0,81,0.00,,,0.12,Wunderground v.1.15,2013-06-05 01:38:00,
2013-06-04 20:43:00,71.7,65.6,29.86,NE,56,1.0,-999.0,81,0.00,,,0.12,Wunderground v.1.15,2013-06-05 01:43:00,
2013-06-04 20:48:00,71.4,65.3,29.86,ENE,59,0.0,-999.0,81,0.00,,,0.12,Wunderground v.1.15,2013-06-05 01:48:00,
2013-06-04 20:53:00,71.3,65.5,29.86,NE,39,1.0,-999.0,82,0.00,,,0.12,Wunderground v.1.15,2013-06-05 01:53:00,
2013-06-04 20:58:00,71.1,65.3,29.86,ENE,61,1.0,-999.0,82,0.00,,,0.12,Wunderground v.1.15,2013-06-05 01:58:00,
2013-06-04 21:03:00,71.0,65.2,29.86,ENE,63,0.0,-999.0,82,0.00,,,0.12,Wunderground v.1.15,2013-06-05 02:03:00,
2013-06-04 21:08:00,70.9,65.5,29.86,NNE,17,0.0,-999.0,83,0.00,,,0.12,Wunderground v.1.15,2013-06-05 02:08:00,
2013-06-04 21:13:00,70.7,65.3,29.86,NE,40,1.0,-999.0,83,0.00,,,0.12,Wunderground v.1.15,2013-06-05 02:13:00,
2013-06-04 21:18:00,70.6,65.2,29.86,ENE,61,0.0,-999.0,83,0.00,,,0.12,Wunderground v.1.15,2013-06-05 02:18:00,
2013-06-04 21:23:00,70.5,65.1,29.86,ENE,60,0.0,-999.0,83,0.00,,,0.12,Wunderground v.1.15,2013-06-05 02:23:00,
2013-06-04 21:28:00,70.4,65.3,29.86,ENE,60,0.0,-999.0,84,0.00,,,0.12,Wunderground v.1.15,2013-06-05 02:28:00,
2013-06-04 21:33:00,70.2,65.1,29.86,ENE,60,0.0,-999.0,84,0.00,,,0.12,Wunderground v.1.15,2013-06-05 02:33:00,
2013-06-04 21:38:00,70.1,65.4,29.86,ENE,60,0.0,-999.0,85,0.00,,,0.12,Wunderground v.1.15,2013-06-05 02:38:00,
2013-06-04 21:43:00,69.9,65.2,29.86,ENE,60,0.0,-999.0,85,0.00,,,0.12,Wunderground v.1.15,2013-06-05 02:43:00,
2013-06-04 21:48:00,69.7,65.3,29.86,NE,39,3.0,-999.0,86,0.00,,,0.12,Wunderground v.1.15,2013-06-05 02:48:00,
2013-06-04 21:53:00,69.5,65.1,29.86,ENE,72,0.0,-999.0,86,0.00,,,0.12,Wunderground v.1.15,2013-06-05 02:53:00,
2013-06-04 21:58:00,69.3,65.3,29.86,ENE,72,0.0,-999.0,87,0.00,,,0.12,Wunderground v.1.15,2013-06-05 02:58:00,
2013-06-04 22:03:00,69.2,65.2,29.86,ENE,72,0.0,-999.0,87,0.00,,,0.12,Wunderground v.1.15,2013-06-05 03:03:00,
2013-06-04 22:08:00,69.1,65.4,29.87,ENE,58,0.0,-999.0,88,0.00,,,0.12,Wunderground v.1.15,2013-06-05 03:08:00,
2013-06-04 22:13:00,69.0,65.3,29.89,ENE,58,0.0,-999.0,88,0.00,,,0.12,Wunderground v.1.15,2013-06-05 03:13:00,
2013-06-04 22:18:00,68.8,65.4,29.89,NNW,331,0.0,-999.0,89,1.11,,,0.15,Wunderground v.1.15,2013-06-05 03:18:00,
2013-06-04 22:23:00,68.1,65.1,29.90,East,94,2.0,-999.0,90,0.39,,,0.19,Wunderground v.1.15,2013-06-05 03:23:00,
2013-06-04 22:28:00,67.5,64.8,29.90,North,352,0.0,-999.0,91,0.13,,,0.20,Wunderground v.1.15,2013-06-05 03:28:00,
2013-06-04 22:33:00,66.9,64.5,29.90,North,352,0.0,-999.0,92,0.06,,,0.20,Wunderground v.1.15,2013-06-05 03:33:00,
2013-06-04 22:38:00,66.3,63.9,29.91,North,352,0.0,-999.0,92,0.04,,,0.20,Wunderground v.1.15,2013-06-05 03:38:00,
2013-06-04 22:43:00,66.0,63.9,29.91,North,352,0.0,-999.0,93,0.00,,,0.20,Wunderground v.1.15,2013-06-05 03:43:00,
2013-06-04 22:48:00,65.7,63.6,29.90,NE,41,0.0,-999.0,93,0.00,,,0.20,Wunderground v.1.15,2013-06-05 03:48:00,
2013-06-04 22:53:00,65.6,63.8,29.90,ENE,67,0.0,-999.0,94,0.00,,,0.20,Wunderground v.1.15,2013-06-05 03:53:00,
2013-06-04 22:58:00,65.6,63.8,29.90,ENE,67,0.0,-999.0,94,0.00,,,0.20,Wunderground v.1.15,2013-06-05 03:58:00,
2013-06-04 23:01:00,65.6,63.8,29.90,ENE,67,0.0,-999.0,94,0.00,,,0.20,Wunderground v.1.15,2013-06-05 04:01:00,
2013-06-04 23:06:00,65.5,64.0,29.90,ENE,67,0.0,-999.0,95,0.21,,,0.22,Wunderground v.1.15,2013-06-05 04:06:00,
2013-06-04 23:11:00,65.5,64.0,29.90,ENE,66,0.0,-999.0,95,0.12,,,0.22,Wunderground v.1.15,2013-06-05 04:11:00,
2013-06-04 23:16:00,65.4,63.9,29.90,ENE,67,0.0,-999.0,95,0.07,,,0.23,Wunderground v.1.15,2013-06-05 04:16:00,
2013-06-04 23:21:00,65.4,63.9,29.90,ENE,67,0.0,-999.0,95,0.40,,,0.25,Wunderground v.1.15,2013-06-05 04:21:00,
2013-06-04 23:26:00,65.4,63.9,29.91,ENE,67,0.0,-999.0,95,0.40,,,0.28,Wunderground v.1.15,2013-06-05 04:26:00,
2013-06-04 23:31:00,65.5,64.3,29.91,ENE,68,0.0,-999.0,96,2.32,,,0.34,Wunderground v.1.15,2013-06-05 04:31:00,
2013-06-04 23:36:00,65.6,64.4,29.91,ENE,68,0.0,-999.0,96,0.43,,,0.42,Wunderground v.1.15,2013-06-05 04:36:00,
2013-06-04 23:41:00,65.5,64.3,29.91,ENE,68,0.0,-999.0,96,0.17,,,0.43,Wunderground v.1.15,2013-06-05 04:41:00,
2013-06-04 23:47:00,65.5,64.3,29.90,ENE,68,0.0,-999.0,96,0.07,,,0.43,Wunderground v.1.15,2013-06-05 04:47:00,
2013-06-04 23:52:00,65.4,64.2,29.91,ENE,69,0.0,-999.0,96,0.04,,,0.43,Wunderground v.1.15,2013-06-05 04:52:00,
2013-06-04 23:57:00,65.4,64.2,29.91,ENE,70,0.0,-999.0,96,0.00,,,0.43,Wunderground v.1.15,2013-06-05 04:57:00,